Location: Cz?stochówka
(50.8142°N, 19.0915°E)
Time: 14:30:45
(UTC+00:00)

Cosmos 2366 rocket - Visible Passes

Search period start: 11 April 2026 00:00
Search period end: 21 April 2026 00:00
Orbit: 953 x 997 km, 82.9° (Epoch: 11 April)

Date Brightness Start Highest point End Pass type
(mag) Time Alt. Az. Time Alt. Az. Time Alt. Az.
11 Apr 3.9 19:40:30 10° S 19:46:41 88° W 19:52:53 10° N visible
11 Apr 6.3 21:28:46 10° WSW 21:33:01 19° WNW 21:37:17 10° NNW visible
12 Apr 4.8 18:21:48 10° SE 18:27:00 30° E 18:32:12 10° NNE visible
12 Apr 4.6 20:06:02 10° SSW 20:12:04 55° WNW 20:18:06 10° N visible
12 Apr 6.6 21:56:48 10° WNW 21:58:59 12° NW 22:01:11 10° NNW visible
13 Apr 4.2 18:46:07 10° SSE 18:52:00 49° E 18:57:53 10° NNE visible
13 Apr 5.5 20:32:04 10° SW 20:37:36 34° WNW 20:43:08 10° N visible
14 Apr 3.9 19:10:59 10° S 19:17:09 81° E 19:23:18 10° NNE visible
14 Apr 6.2 20:58:42 10° WSW 21:03:19 22° WNW 21:07:56 10° NNW visible
15 Apr 4.4 19:36:21 10° SSW 19:42:27 63° WNW 19:48:34 10° N visible
15 Apr 6.6 21:26:17 10° W 21:29:14 14° NW 21:32:10 10° NNW visible
16 Apr 4.4 18:16:46 10° SSE 18:22:30 43° E 18:28:14 10° NNE visible
16 Apr 5.3 20:02:15 10° SW 20:07:57 38° WNW 20:13:40 10° N visible
17 Apr 3.9 18:41:31 10° S 18:47:36 71° E 18:53:44 10° NNE visible
17 Apr 6.1 20:28:42 10° WSW 20:33:37 24° WNW 20:38:33 10° N visible
18 Apr 4.3 19:06:45 10° SSW 19:12:53 72° WNW 19:19:03 10° N visible
18 Apr 6.6 20:55:58 10° W 20:59:29 15° NW 21:03:00 10° NNW visible
19 Apr 5.1 19:32:29 10° SW 19:38:19 44° WNW 19:44:11 10° N visible
20 Apr 4.0 18:12:03 10° S 18:18:05 62° E 18:24:07 10° NNE visible
20 Apr 6.0 19:58:46 10° WSW 20:03:56 28° WNW 20:09:07 10° N visible
